Location: Chuathbaluk
(61.5726°N, 159.2454°W)
Time: 04:38:12
(UTC+00:00)

Transit 2A - Pass Details

Date: 26 November 2020
Orbit: 599 x 960 km, 66.7° (Epoch: 26 January)

Event Time Altitude Azimuth Distance (km) Brightness Sun altitude
Rises 14:05:20 0° 309° (NW) 3,372 - -34.7°
Reaches altitude 10° 14:08:38 10° 291° (WNW) 2,359 - -34.4°
Maximum altitude 14:12:03 17° 251° (WSW) 1,818 - -34.0°
Drops below altitude 10° 14:15:17 10° 211° (SSW) 2,195 - -33.6°
Sets 14:18:12 0° 192° (SSW) 3,041 - -33.3°
